Regional Weather Roundup
Issued by NWS

Home | Current Version | Previous Version | Text Only | Print | Product List | Glossary Off
Versions: 1 2 3 4 5 6 7 8 9 10 11 12 13 14 15 16 17 18 19 20 21 22 23 24 25 26 27 28 29 30 31 32 33 34 35 36 37 38 39 40 41 42 43 44 45 46 47 48 49 50

000
ASUS45 KCYS 211110
RWRWY

WYOMING REGIONAL WEATHER ROUNDUP
NATIONAL WEATHER SERVICE CHEYENNE WY
400 AM MST FRI NOV 21 2014

NOTE:  "FAIR" INDICATES FEW OR NO CLOUDS BELOW 12,000 FEET
WITH NO SIGNIFICANT WEATHER AND/OR OBSTRUCTIONS TO VISIBILITY.

WYZ001-211200-
YELLOWSTONE NATIONAL PARK

CITY           SKY/WX    TMP DP  RH WIND       PRES   REMARKS
LK YELLOWSTONE   N/A     28  23  81 CALM      29.99F
W YELLOWSTONE  NOT AVBL

$$
WYZ002>013-054>058-071-098>099-211200-
NORTHERN WYOMING

CITY           SKY/WX    TMP DP  RH WIND       PRES   REMARKS
JACKSON        CLOUDY    10  10 100 NE5       30.02F WCI   2
CODY           PTCLDY    43  23  45 W12G22    29.87F
GREYBULL       PTCLDY     6   4  91 W5        29.92S WCI  -3
WORLAND        PTCLDY     9   5  84 S7        29.91R WCI  -2
SHERIDAN       MOCLDY    28  21  75 SE3       29.82F
BUFFALO        PTCLDY    35  17  47 W5        29.84F WCI  31
GILLETTE       PTCLDY    22  18  85 NW6       29.83F WCI  14
HULETT         FAIR      30  23  74 S5        29.84F WCI  25
NEWCASTLE      FAIR      25  19  80 CALM      29.87F

$$
WYZ014>020-022>026-101>103-211200-
CENTRAL WYOMING

CITY           SKY/WX    TMP DP  RH WIND       PRES   REMARKS
BIG PINEY      PTCLDY    11   7  84 CALM      30.02S
PINEDALE       MOSUNNY   10   9  92 NW5       30.02S WCI   2
DUBOIS         PTSUNNY   28  19  69 NW14      29.94F WCI  17
LANDER         NOT AVBL
RIVERTON       PTCLDY    26  17  68 W13       29.91S WCI  15
CASPER         CLOUDY    32  20  61 W12       29.91S WCI  23
DOUGLAS        MOCLDY    36  21  54 NW3       29.89F

$$
WYZ021-027>030-104>119-211200-
SOUTHERN WYOMING

CITY           SKY/WX    TMP DP  RH WIND       PRES   REMARKS
EVANSTON       PTCLDY    28  13  53 S3        30.02S
FORT BRIDGER   FAIR      26  18  69 W9        30.04S WCI  17
ROCK SPRINGS   PTCLDY    26  14  60 SW9       30.01S WCI  17
DIXON          FAIR      24  19  79 CALM      30.05S
RAWLINS        MOCLDY    31  14  49 W13       29.98F WCI  21
SARATOGA       FAIR      28  19  69 SW6       30.00S WCI  22
LARAMIE        MOCLDY    29  18  63 SW9       29.97S WCI  20
CHEYENNE       CLOUDY    39  20  46 W10       29.94F WCI  32
TORRINGTON     PTCLDY    27  19  72 CALM      29.89F
PINE BLUFFS    CLOUDY    34  23  64 W3        29.93S

$$


USA.gov is the U.S. government's official web portal to all federal, state and local government web resources and services.